sat.trackr.live / text

‹ back to catalog

IOD-1

NORAD 63212 · 2025-052C

PAYLOAD ACTIVE UNKNOWN

§ Identity

Operator
Country
SPN
Launch date
2025-03-15
Launch site
AFWTR
Launch vehicle
Mass (kg)
RCS (m²)

External: N2YO · Heavens-Above · Gunter

§ Orbital elements

Epoch: 2026-09-22T17:35:32.704224Z

Period
91.59 min
Inclination
97.3651°
Eccentricity
0.0008582
Mean motion
15.72250876 rev/d
Perigee alt
346.7 km
Apogee alt
358.2 km
Semi-major
6,730.6 km
B*
1.3475e-3
RAAN
171.3320°
Arg perigee
112.4724°
Mean anomaly
247.7449°
Rev number
8,570

§ Raw data

IOD-11 63212U 25052C   26265.73301741  .00181337  00000+0  13475-2 0  99992 63212  97.3651 171.3320 0008582 112.4724 247.7449 15.72250876 85708

JSON: /api/v1/satellites/63212 · /tle

For live sub-satellite position, see the globe view (requires WebGL).

§ Visibility from observer

Set your observer location to see the next 7 days of passes ≥ 10°. The values pass through the URL so the page stays shareable.

No JS? Fill the form by hand. The geolocation button needs JavaScript.

§ Radio — SatNOGS DB

ModeDescriptionDownlinkUplink
FM Mode S - Transmitter 2.245 GHz
FM S-band telemetry 2.256 GHz

2 transmitters · refreshed weekly from db.satnogs.org